Fairbanks Ft. Wainwright, AK

2:22 AM AKDT on March 25, 2017 (GMT -0800)
Ladd Army Air Field

Weather History for PAFB - April, 2013

Change the Weather History Date:

Thursday, April 4, 2013

  Actual Average Record
Temperature  
Mean Temperature 16 °F -  
Max Temperature 28 °F 31 °F 50 °F (2008)
Min Temperature 5 °F 8 °F -7 °F (2012)
Degree Days  
Heating Degree Days 48    
Moisture  
Dew Point -3 °F    
Average Humidity 41    
Maximum Humidity 59    
Minimum Humidity 23    
Precipitation  
Precipitation 0.00 in - - ()
Snow  
Snow 0.00 in - - ()
Snow Depth 19.00 in    
Sea Level Pressure  
Sea Level Pressure 30.32 in    
Wind  
Wind Speed 9 mph (ENE)    
Max Wind Speed 20 mph    
Max Gust Speed 24 mph    
Visibility 10 miles    
Events      
Averages and records for this station are not official NWS values.
T = Trace of Precipitation, MM = Missing Value Source: NWS Daily Summary

Daily Weather History Graph

Daily Weather History Graph

Search for Another Location

Airport or City:

Trip Planner

Search our weather history database for the weather conditions in past years. The results will help you decide how hot, cold, wet, or windy it might be!

Date:

Astronomy

Apr. 04, 2013 Rise Set
Actual Time 6:54 AM AKDT 8:54 PM AKDT
Civil Twilight 6:02 AM AKDT 9:47 PM AKDT
Nautical Twilight 4:52 AM AKDT 10:57 PM AKDT
Astronomical Twilight 3:07 AM AKDT 12:49 AM AKDT
Moon 5:29 AM AKDT (4/4) 1:26 PM AKDT (4/4)
Length of Visible Light 15h 45m
Length of Day
13h 59m
Waning Crescent, 32% of the Moon is Illuminated
Apr 4
Waning Crescent
Apr 10
New
Apr 18
First Quarter
Apr 25
Full
May 2
Last Quarter

Hourly Weather History & Observations

Time (AKDT) Temp. Windchill Dew Point Humidity Pressure Visibility Wind Dir Wind Speed Gust Speed Precip Events Conditions
12:56 AM 16.0 °F 3.6 °F -2.9 °F 43% 30.50 in 10.0 mi East 10.4 mph - N/A   Clear
1:56 AM 12.0 °F 2.7 °F -4.0 °F 49% 30.50 in 10.0 mi ENE 5.8 mph - N/A   Clear
2:56 AM 10.9 °F 0.2 °F -4.0 °F 51% 30.50 in 10.0 mi ENE 6.9 mph - N/A   Clear
3:56 AM 9.0 °F -4.2 °F -5.1 °F 53% 30.49 in 10.0 mi ENE 9.2 mph - N/A   Clear
4:56 AM 10.9 °F 2.9 °F -5.1 °F 49% 30.48 in 10.0 mi East 4.6 mph - N/A   Clear
5:56 AM 10.0 °F 3.6 °F -5.1 °F 51% 30.47 in 10.0 mi NE 3.5 mph - N/A   Clear
6:30 AM 5.0 °F -6.9 °F -7.6 °F 56% 30.42 in 10.0 mi ENE 6.9 mph - N/A   Clear
6:55 AM 10.4 °F -0.4 °F -5.8 °F 48% 30.45 in 10.0 mi ENE 6.9 mph - N/A   Clear
7:55 AM 8.6 °F -1.3 °F -7.6 °F 48% 30.44 in 10.0 mi ENE 5.8 mph - N/A   Clear
8:55 AM 12.2 °F 2.9 °F -5.8 °F 45% 30.43 in 10.0 mi ENE 5.8 mph - N/A   Clear
9:55 AM 15.8 °F 3.4 °F -4.0 °F 41% 30.41 in 10.0 mi East 10.4 mph - N/A   Clear
10:55 AM 19.4 °F 8.6 °F -4.0 °F 36% 30.38 in 10.0 mi East 9.2 mph - N/A   Clear
11:55 AM 23.0 °F 13.1 °F -2.2 °F 33% 30.20 in 10.0 mi East 9.2 mph - N/A   Clear
12:55 PM 24.8 °F 14.0 °F -4.0 °F 28% 30.33 in 10.0 mi ESE 11.5 mph 16.1 mph N/A   Clear
1:55 PM 26.6 °F 16.2 °F -4.0 °F 26% 30.30 in 10.0 mi East 11.5 mph 16.1 mph N/A   Clear
2:55 PM 28.4 °F 18.5 °F -5.8 °F 23% 30.27 in 10.0 mi East 11.5 mph 20.7 mph N/A   Clear
3:55 PM 28.4 °F 18.0 °F 15.8 °F 59% 30.23 in 10.0 mi NE 12.7 mph 19.6 mph N/A   Clear
4:55 PM 28.4 °F 18.5 °F -0.4 °F 29% 30.21 in 10.0 mi ENE 11.5 mph - N/A   Clear
5:55 PM 26.6 °F 14.7 °F -2.2 °F 29% 30.18 in 10.0 mi NE 15.0 mph - N/A   Clear
6:55 PM 24.8 °F 11.5 °F -2.2 °F 31% 30.17 in 10.0 mi NE 17.3 mph 23.0 mph N/A   Clear
7:55 PM 23.0 °F 8.3 °F -2.2 °F 33% 30.15 in 10.0 mi ENE 19.6 mph 24.2 mph N/A   Clear
8:55 PM 19.4 °F 5.0 °F -2.2 °F 39% 30.14 in 10.0 mi ENE 16.1 mph - N/A   Clear
9:55 PM 17.6 °F 3.7 °F -2.2 °F 42% 30.14 in 10.0 mi ENE 13.8 mph - N/A   Clear
10:56 PM 15.1 °F 3.3 °F -2.9 °F 45% 30.13 in 10.0 mi ENE 9.2 mph - N/A   Clear
11:56 PM 14.0 °F 1.2 °F -2.9 °F 47% 30.11 in 10.0 mi ENE 10.4 mph - N/A   Clear